Location: Newark
(48.2308°N, 120.8549°W)
Time: 05:58:35
(UTC+00:00)

SR - Visible Passes

Search period start: 28 May 2020 00:00
Search period end: 07 June 2020 00:00
Orbit: 581 x 874 km, 66.7° (Epoch: 27 May)

Date Brightness Start Highest point End Pass type
(mag) Time Alt. Az. Time Alt. Az. Time Alt. Az.
28 May ? 06:20:31 10° N 06:23:01 14° NNE 06:25:25 10° ENE visible
28 May ? 08:01:37 10° NNW 08:06:02 61° NE 08:07:51 32° ESE visible
28 May ? 09:44:42 10° WNW 09:47:13 17° WSW 09:47:13 17° WSW visible
29 May ? 05:31:56 10° N 05:32:39 10° NNE 05:33:23 10° NNE visible
29 May ? 07:12:06 10° NNW 07:16:09 33° NE 07:18:58 16° E visible
29 May ? 08:54:13 10° NW 08:58:10 34° WSW 08:58:20 34° WSW visible
30 May ? 06:22:43 10° NNW 06:26:06 20° NE 06:29:21 10° E visible
30 May ? 08:04:16 10° NW 08:08:39 72° WSW 08:09:31 53° S visible
31 May ? 05:33:33 10° N 05:35:53 14° NNE 05:38:09 10° ENE visible
31 May ? 07:14:34 10° NNW 07:18:56 57° NE 07:20:46 31° ESE visible
31 May ? 08:57:31 10° WNW 09:00:08 18° WSW 09:00:08 18° WSW visible
01 Jun ? 06:25:04 10° NNW 06:29:03 31° NE 06:32:03 15° E visible
01 Jun ? 08:07:06 10° NW 08:11:07 37° WSW 08:11:26 36° SW visible
02 Jun ? 05:35:43 10° NNW 05:38:59 20° NE 05:42:09 10° E visible
02 Jun ? 07:17:12 10° NW 07:21:34 77° WSW 07:22:45 46° SSE visible
03 Jun ? 04:46:34 10° N 04:48:45 13° NNE 04:50:53 10° NE visible
03 Jun ? 06:27:31 10° NNW 06:31:51 53° NE 06:34:07 25° ESE visible
03 Jun ? 08:10:21 10° WNW 08:13:27 19° WSW 08:13:30 19° WSW visible
04 Jun ? 05:38:02 10° NNW 05:41:57 30° NE 05:45:31 11° ESE visible
04 Jun ? 07:20:01 10° NW 07:24:03 39° WSW 07:24:54 35° SW visible
05 Jun ? 04:48:42 10° NNW 04:51:52 19° NE 04:54:56 10° E visible
05 Jun ? 06:30:07 10° NW 06:34:30 83° WSW 06:36:20 33° SSE visible
06 Jun ? 05:40:29 10° NNW 05:44:45 50° NE 05:47:48 17° ESE visible
06 Jun ? 07:23:11 10° WNW 07:26:24 21° WSW 07:27:12 20° SW visible
